FW1683 Weather Reports


time (UTC)temp
F
wind
direction
speed
knots
gust
knots
rain 1hr
in
rain 24hr
in
rain mn
in
humidity
%
barometer
mb
20260508060028 55 292 4.3 6.1 0.00 0.00 0.00 84 1012.5
20260508055009 55 282 3.5 6.1 0.00 0.00 0.00 83 1012.4
20260508054009 55 308 2.6 4.3 0.00 0.00 0.00 84 1012.2
20260508053015 55 287 1.7 2.6 0.00 0.00 0.00 85 1012.0
20260508051008 54 293 2.6 5.2 0.00 0.00 0.00 86 1011.8
20260508045026 54 266 4.3 6.1 0.00 0.00 0.00 86 1011.6
20260508044009 54 280 3.5 6.1 0.00 0.00 0.00 85 1011.6
20260508042023 54 277 3.5 6.1 0.00 0.00 0.00 85 1011.3
20260508041009 54 317 3.5 5.2 0.00 0.00 0.00 85 1011.4
20260508040010 54 311 6.1 8.7 0.00 0.00 0.00 85 1011.3
20260508035008 54 306 7.0 10.4 0.00 0.00 0.00 86 1011.2
20260508034008 54 302 5.2 7.8 0.00 0.00 0.00 86 1011.2
20260508033016 55 296 3.5 6.1 0.00 0.00 0.00 86 1011.4
20260508032008 55 303 4.3 7.0 0.00 0.00 0.00 86 1011.6
20260508031009 55 279 3.5 6.1 0.00 0.00 0.00 86 1011.7
20260508030011 55 291 2.6 4.3 0.00 0.00 0.00 86 1011.7
20260508025008 55 321 3.5 5.2 0.00 0.00 0.00 86 1011.7
20260508024008 55 289 3.5 6.1 0.00 0.00 0.00 86 1011.8
20260508023009 55 293 4.3 7.8 0.00 0.00 0.00 86 1012.0
20260508022027 55 306 3.5 6.1 0.00 0.00 0.00 86 1011.8
20260508021008 55 314 5.2 7.8 0.00 0.00 0.00 86 1011.7
20260508020010 55 306 5.2 8.7 0.00 0.00 0.00 86 1011.8
20260508015008 56 294 4.3 7.0 0.00 0.00 0.00 86 1012.1
20260508013011 56 292 3.5 6.1 0.00 0.00 0.00 87 1012.1
20260508012007 56 285 3.5 6.1 0.00 0.00 0.00 87 1012.3
20260508011008 56 299 5.2 7.8 0.00 0.00 0.00 87 1012.4
20260508010023 56 297 4.3 7.8 0.00 0.00 0.00 87 1012.4
20260508005007 56 303 5.2 7.8 0.00 0.00 0.00 87 1012.4
20260508004009 56 308 6.1 9.6 0.00 0.00 0.00 87 1012.4
20260508001008 56 297 4.3 7.0 0.00 0.00 0.00 89 1012.8
20260508000010 56 285 4.3 7.8 0.00 0.00 0.00 90 1012.7
20260507235009 57 296 4.3 7.8 0.00 0.00 0.00 90 1012.8
20260507232010 57 306 7.0 9.6 0.00 0.00 0.00 89 1012.9
20260507231008 57 309 5.2 8.7 0.00 0.00 0.00 88 1013.0
20260507222009 57 308 5.2 7.8 0.00 0.00 0.00 88 1013.1
20260507220024 58 311 3.5 7.0 0.00 0.00 0.14 87 1013.2
20260507214009 58 303 5.2 8.7 0.00 0.00 0.14 87 1013.0
20260507213011 58 303 6.1 9.6 0.00 0.00 0.14 88 1013.0
20260507212008 58 287 4.3 7.0 0.00 0.00 0.14 88 1012.9
20260507210028 59 284 3.5 5.2 0.01 0.00 0.14 87 1012.6
20260507205012 59 277 3.5 5.2 0.01 0.00 0.14 87 1012.4
20260507204020 60 303 2.6 4.3 0.01 0.00 0.14 86 1012.3
20260507203012 60 340 1.7 3.5 0.01 0.00 0.14 85 1012.2
20260507202007 60 40 0.0 1.7 0.01 0.00 0.14 84 1012.1
20260507200013 60 237 0.9 1.7 0.02 0.00 0.14 84 1012.0
20260507195007 60 235 0.9 2.6 0.02 0.00 0.13 84 1012.0
20260507194009 60 41 0.9 1.7 0.05 0.00 0.13 82 1011.9
20260507193007 60 348 2.6 3.5 0.06 0.00 0.13 81 1011.9
20260507192007 60 347 1.7 4.3 0.08 0.00 0.13 82 1011.9
20260507191009 60 342 3.5 6.1 0.09 0.00 0.13 83 1011.9
20260507190023 60 357 3.5 7.0 0.11 0.00 0.12 83 1012.1
20260507185006 60 335 5.2 7.8 0.12 0.00 0.12 82 1012.1
20260507184008 60 325 4.3 7.0 0.09 0.00 0.09 82 1012.1
20260507183018 60 8 4.3 7.8 0.07 0.00 0.07 80 1012.1
20260507182008 61 339 3.5 6.1 0.06 0.00 0.06 79 1012.0
20260507181022 61 335 6.1 11.3 0.04 0.00 0.04 77 1011.9
20260507180011 63 333 4.3 8.7 0.01 0.00 0.01 76 1012.0
20260507175007 63 322 6.1 10.4 0.00 0.00 0.00 73 1011.9
20260507173012 65 349 7.0 12.2 0.00 0.00 0.00 57 1011.5
20260507172008 67 9 6.1 11.3 0.00 0.00 0.00 58 1011.3
20260507170024 68 53 7.0 11.3 0.00 0.00 0.00 62 1011.1
20260507165007 69 46 5.2 8.7 0.00 0.00 0.00 63 1011.0
20260507164008 69 53 3.5 6.1 0.00 0.00 0.00 61 1010.9
20260507163013 68 67 4.3 7.0 0.00 0.00 0.00 62 1010.8
20260507162009 68 78 4.3 7.8 0.00 0.00 0.00 63 1010.6
20260507161008 68 69 5.2 8.7 0.00 0.00 0.00 63 1010.4
20260507160031 68 53 5.2 8.7 0.00 0.00 0.00 62 1010.4
20260507155008 68 73 5.2 7.0 0.00 0.00 0.00 60 1010.4
20260507154010 67 66 7.0 10.4 0.00 0.00 0.00 58 1010.4
20260507153027 68 82 7.8 12.2 0.00 0.00 0.00 64 1010.4
20260507152008 67 94 7.0 11.3 0.00 0.00 0.00 65 1010.4
20260507151007 69 66 6.1 10.4 0.00 0.00 0.00 65 1010.4
20260507150022 69 50 9.6 14.8 0.00 0.00 0.00 66 1010.4
20260507145010 68 60 8.7 13.0 0.00 0.00 0.00 63 1010.4
20260507144010 69 56 8.7 13.9 0.00 0.00 0.00 65 1010.5
20260507143017 69 65 6.1 10.4 0.00 0.00 0.00 64 1010.6
20260507142009 69 63 8.7 13.9 0.00 0.00 0.00 62 1010.8
20260507141009 69 57 8.7 13.0 0.00 0.00 0.00 60 1010.9
20260507140010 70 69 6.1 10.4 0.00 0.00 0.00 60 1010.8
20260507134011 71 48 10.4 16.5 0.00 0.00 0.00 58 1010.9
20260507133008 72 57 7.8 13.0 0.00 0.00 0.00 55 1011.0
20260507132008 73 50 7.8 12.2 0.00 0.00 0.00 51 1011.1
20260507131009 72 56 9.6 14.8 0.00 0.00 0.00 52 1011.1
20260507130033 72 69 8.7 13.9 0.00 0.00 0.00 55 1011.2
20260507125011 70 63 8.7 13.0 0.00 0.00 0.00 58 1011.2
20260507123009 69 61 6.1 11.3 0.00 0.00 0.00 63 1011.5
20260507120015 66 46 7.0 12.2 0.00 0.00 0.00 73 1011.8
20260507114008 66 51 7.8 12.2 0.00 0.00 0.00 73 1012.1
20260507113008 66 44 9.6 14.8 0.00 0.00 0.00 69 1012.0
20260507112008 67 56 10.4 16.5 0.00 0.00 0.00 71 1012.2
20260507111009 68 61 7.8 13.0 0.00 0.00 0.00 68 1012.3
20260507105008 68 77 7.8 13.0 0.00 0.00 0.00 57 1012.5
20260507104011 68 60 10.4 15.6 0.00 0.00 0.00 60 1012.4
20260507103008 68 54 11.3 17.4 0.00 0.00 0.00 66 1012.3
20260507102008 69 51 13.9 20.0 0.00 0.00 0.00 62 1012.3
20260507100010 73 59 9.6 15.6 0.00 0.00 0.00 52 1012.3
20260507095008 73 52 8.7 13.0 0.00 0.00 0.00 54 1012.3
20260507094009 72 77 9.6 16.5 0.00 0.00 0.00 54 1012.3
20260507092008 71 54 9.6 14.8 0.00 0.00 0.00 55 1012.3
20260507091008 71 47 7.0 10.4 0.00 0.00 0.00 55 1012.3
20260507090022 71 37 7.0 11.3 0.00 0.00 0.00 57 1012.2
20260507085008 71 35 7.8 13.0 0.00 0.00 0.00 56 1012.3
20260507084009 72 23 6.1 12.2 0.00 0.00 0.00 57 1012.3
20260507075011 67 43 4.3 7.0 0.00 0.00 0.00 57 1012.4
20260507074008 67 40 5.2 7.8 0.00 0.00 0.00 57 1012.5
20260507073009 68 39 4.3 8.7 0.00 0.00 0.00 56 1012.4
20260507072008 67 24 4.3 7.0 0.00 0.00 0.00 54 1012.4
20260507071009 66 39 4.3 7.8 0.00 0.00 0.00 53 1012.2
20260507070013 66 36 2.6 4.3 0.00 0.00 0.00 54 1012.1
20260507065009 64 325 1.7 3.5 0.00 0.00 0.00 56 1012.1
20260507063009 63 338 2.6 4.3 0.00 0.00 0.00 61 1011.9
20260507062010 62 355 2.6 4.3 0.00 0.00 0.00 65 1011.9
20260507061008 60 339 2.6 5.2 0.00 0.00 0.00 69 1011.8